Retour au catalogue

THOR DELTA 1 R/B

ActifPO
NORAD 12889·ROCKET BODY·🇺🇸 United States

Lancé Oct 6, 1981 depuis Vandenberg Space Force Base

Loading…

Prochains Passages (prochaines 24 heures)

TLE

FraisSource: Space-Track

Époque: Sep 14, 2026, 01:47 UTC

1 12889U 81100C   26257.07497455  .00000178  00000-0  10024-3 0  9997
2 12889  99.8693 108.5633 1307092  95.4660  55.1418 12.20209560992182

Suivez THOR DELTA 1 R/B en temps réel avec AllMySat

Download on the App Store